Back to catalog

THOR AGENA B R/B

AliveUNKNOWN
NORAD 1807·ROCKET BODY·🇺🇸 United States

Launched Nov 29, 1965 from Vandenberg Space Force Base

Loading…

Next Passes (next 24 hours)

TLE

FreshSource: Space-Track

Epoch: Sep 14, 2026, 03:52 UTC

1 01807U 65098C   26257.16178583  .00000814  00000-0  26661-3 0  9992
2 01807  79.8378 326.0765 1330738 210.0986 141.6724 12.28209243684220

Track THOR AGENA B R/B in real time with AllMySat

Download on the App Store